Regional Weather Roundup
Issued by NWS

Home | Current Version | Previous Version | Graphics & Text | Print | Product List | Glossary On
Versions: 1 2 3 4 5 6 7 8 9 10 11 12 13 14 15 16 17 18 19 20 21 22 23 24 25 26 27 28 29 30 31 32 33 34 35 36 37 38 39 40 41 42 43 44 45 46 47 48 49 50
922
ASUS43 KIND 221709
RWRIN

WEATHER ROUNDUP FOR INDIANA
NATIONAL WEATHER SERVICE INDIANAPOLIS IN
1200 PM EST MON JAN 22 2018

NOTE: "FAIR" INDICATES FEW OR NO CLOUDS BELOW 12,000 FEET WITH NO
SIGNIFICANT WEATHER AND/OR OBSTRUCTIONS TO VISIBILITY.

* - STATION DOES NOT REPORT WEATHER SUCH AS PRECIPITATION OR FOG.

+ - STATION NOT QUALITY CONTROLLED BY THE NATIONAL WEATHER SERVICE.
    USE DATA WITH CAUTION...ESPECIALLY DEWPOINT AND RELATIVE
    HUMIDITY OBSERVATIONS.

INZ001>003-010>013-019-020-221800-
NORTHWEST INDIANA

CITY           SKY/WX    TMP DP  RH WIND       PRES   REMARKS
GARY /AIRPORT/ CLOUDY    54  48  82 S17G29    29.59F
KNOX *+        CLOUDY    52  48  87 S23G29    29.64F
LA PORTE +     CLOUDY    51  48  89 S16G24    29.64F
MONTICELLO +   CLOUDY    53  49  88 S21G26    29.64F
RENSSELAER +   CLOUDY    52  46  82 S22G28    29.62F
VALPARAISO     CLOUDY    53  49  86 S18G28    29.62F

$$

LMZ046-743>745-221800-
SOUTHERN LAKE MICHIGAN

STATION/POSITION TIME  TEMP    WIND        PRES    WAVE
                       AIR SEA DIR/SP/G            HT
                 (UTC) (F)     (DEG/KT/KT) (MB)    (FT)
BURNS HARBOR     1640   52     180/ 16/ 30 1003.0F
MICHIGAN CITY    1640   52     160/ 20/ 27   N/A

$$

INZ004-005-014>016-021>024-221800-
NORTH CENTRAL INDIANA

CITY           SKY/WX    TMP DP  RH WIND       PRES   REMARKS
ELKHART        CLOUDY    50  48  93 S14G21    29.67F
GOSHEN         CLOUDY    52  47  83 S21G32    29.67F
LOGANSPORT +   CLOUDY    52  46  82 S20       29.68F
PERU/GRISSOM   CLOUDY    52  52 100 S23G32    29.68F
ROCHESTER +    CLOUDY    54  50  87 S16G28    29.68F
SOUTH BEND     CLOUDY    52  47  83 S21G32    29.66F
WARSAW +       CLOUDY    50  46  87 S10G23    29.68F

$$

INZ006>009-017-018-025>027-221800-
NORTHEAST INDIANA

CITY           SKY/WX    TMP DP  RH WIND       PRES   REMARKS
AUBURN +       FAIR     N/A N/A N/A S12G18    29.72F
FORT WAYNE     LGT RAIN  53  49  86 S28G43    29.71F
HUNTINGTON +   DRIZZLE   51  49  94 S14G24    29.71F
KENDALLVILLE +   N/A     51  49  91 S18G29    29.71F

$$

INZ028-029-035-036-043>045-051>053-221800-
WEST CENTRAL INDIANA

CITY           SKY/WX    TMP DP  RH WIND       PRES   REMARKS
CRAWFORDSVL +  CLOUDY    51  51 100 MISG      29.67F
GREENCASTLE +  CLOUDY    52  48  87 S15G24    29.70F
LAFAYETTE      CLOUDY    53  50  89 S13G22    29.65F
TERRE HAUTE    CLOUDY    52  48  86 S20G28    29.69F

$$

INZ030>032-037>040-046>048-054>057-064-065-221800-
CENTRAL INDIANA

CITY           SKY/WX    TMP DP  RH WIND       PRES   REMARKS
COLUMBUS       LGT RAIN  48  46  93 S14       29.81F
FRANKFORT +    CLOUDY    55  51  86 S18G28    29.69F
GREENWOOD *+   CLOUDY    51  50  96 S16G23    29.77
INDIANAPOLIS   CLOUDY    52  49  89 S17       29.73F
-EAGLE CREEK   PTSUNNY   52  48  86 S15G22    29.72F
MARION +       PTSUNNY   50  48  92 S29G38    29.73F
MT COMFORT *+  CLOUDY    50  50 100 S18G25    29.75F
SHELBYVILLE    NOT AVBL
ZIONSVILLE +   CLOUDY    50  49  94 S23G31    29.71F

$$

INZ033-034-041-042-049-050-058-059-221800-
EAST CENTRAL INDIANA

CITY           SKY/WX    TMP DP  RH WIND       PRES   REMARKS
MUNCIE         LGT RAIN  53  48  83 S18G28    29.76F
RICHMOND +     LGT RAIN  46  45  93 S16       29.84F

$$

INZ060-061-067>069-081>083-085>088-221800-
SOUTHWEST INDIANA

CITY           SKY/WX    TMP DP  RH WIND       PRES   REMARKS
EVANSVILLE     PTSUNNY   53  50  89 S14G22    29.74F
HUNTINGBURG +  LGT RAIN  52  49  89 S14G28    29.76F
WASHINGTON +   CLOUDY    51  49  93 S21G30    29.72F

$$

INZ062-063-066-070>080-084-089>092-221800-
SOUTH CENTRAL AND SOUTHEAST INDIANA

CITY           SKY/WX    TMP DP  RH WIND       PRES   REMARKS
BATESVILLE *+    N/A    N/A N/A N/A MISG        N/A
BEDFORD +      CLOUDY    52  48  87 S10       29.79F
BLOOMINGTON    CLOUDY    52  48  86 S14G36    29.74F
FRENCH LICK *+ CLOUDY    50 N/A N/A S10G16    29.79F
MADISON *+     CLOUDY    52  45  76 S9        29.87F
NORTH VERNON + LGT RAIN  50  46  87 S6        29.84F
SEYMOUR +      LGT RAIN  52  48  87 S9        29.82F

$$





USA.gov is the U.S. government's official web portal to all federal, state and local government web resources and services.